WetterOnline ( https://www.wetteronline.de )

Wetter aktuell Thüringer Wald (in 800m)

Aktuelles Wetter: Neuhaus (851m)

6-stündlich | Neueste Meldungen
Ortszeit Temperatur Wetter
So, 14.04. 20:00 12.0° C wolkig
So, 14.04. 14:00 15.6° C wolkig
So, 14.04. 8:00 11.4° C leicht bewölkt
So, 14.04. 2:00 12.8° C wolkig
Sa, 13.04. 20:00 14.2° C wolkig
Sa, 13.04. 14:00 16.1° C leicht bewölkt
Sa, 13.04. 8:00 9.5° C wolkig
Sa, 13.04. 2:00 9.5° C wolkig
Ortszeit Temperatur Wetter
Mo, 15.04. 0:30 8.5° C bedeckt
Mo, 15.04. 0:20 8.5° C bedeckt
Mo, 15.04. 0:10 8.6° C bedeckt
Mo, 15.04. 0:00 8.9° C bedeckt
So, 14.04. 23:50 8.9° C bedeckt
So, 14.04. 23:40 9.0° C bedeckt
So, 14.04. 23:30 9.0° C bewölkt
So, 14.04. 23:00 9.0° C bedeckt
So, 14.04. 22:30 9.2° C wolkig
So, 14.04. 22:00 9.7° C bewölkt
So, 14.04. 21:30 10.3° C bewölkt
Ortszeit Relative Feuchte Sichtweite
So, 14.04. 20:00 53% 55 km
So, 14.04. 14:00 51% 50 km
So, 14.04. 8:00 84% 40 km
So, 14.04. 2:00 73% 55 km
Sa, 13.04. 20:00 70% 60 km
Sa, 13.04. 14:00 59% >70 km
Sa, 13.04. 8:00 92% 40 km
Sa, 13.04. 2:00 89% 60 km
Ortszeit Relative Feuchte Sichtweite
Mo, 15.04. 0:30 75% 35 km
Mo, 15.04. 0:20 75% -
Mo, 15.04. 0:10 74% -
Mo, 15.04. 0:00 74% 40 km
So, 14.04. 23:50 74% -
So, 14.04. 23:40 73% -
So, 14.04. 23:30 73% 45 km
So, 14.04. 23:00 74% 45 km
So, 14.04. 22:30 74% 50 km
So, 14.04. 22:00 72% 45 km
So, 14.04. 21:30 69% 30 km
Ortszeit Niederschlagsmenge Niederschlagsart
So, 14.04. 20:00 0.0 l/m2 in 12 Std. -
So, 14.04. 14:00 0.0 l/m2 in 6 Std. -
So, 14.04. 8:00 0.0 l/m2 in 12 Std. -
So, 14.04. 2:00 0.0 l/m2 in 6 Std. -
Sa, 13.04. 20:00 0.0 l/m2 in 12 Std. -
Sa, 13.04. 14:00 0.0 l/m2 in 6 Std. -
Sa, 13.04. 8:00 0.0 l/m2 in 12 Std. -
Sa, 13.04. 2:00 0.0 l/m2 in 6 Std. -
Ortszeit Niederschlagsmenge Niederschlagsart
Mo, 15.04. 0:30 0.0 l/m2 in 30 Min -
Mo, 15.04. 0:20 keine Meldung -
Mo, 15.04. 0:10 keine Meldung -
Mo, 15.04. 0:00 0.0 l/m2 in 1 Std. -
So, 14.04. 23:50 keine Meldung -
So, 14.04. 23:40 keine Meldung -
So, 14.04. 23:30 0.0 l/m2 in 30 Min -
So, 14.04. 23:00 0.0 l/m2 in 1 Std. -
So, 14.04. 22:30 0.0 l/m2 in 30 Min -
So, 14.04. 22:00 0.0 l/m2 in 1 Std. -
So, 14.04. 21:30 0.0 l/m2 in 30 Min -
Ortszeit Stärke Spitze Richtung
km/h Bft. km/h Grad Sektor
So, 14.04. 20:00 9 2 41 290° W
So, 14.04. 14:00 22 4 43 260° W
So, 14.04. 8:00 9 2 28 240° SW
So, 14.04. 2:00 18 3 40 220° SW
Sa, 13.04. 20:00 18 3 36 210° SW
Sa, 13.04. 14:00 14 3 32 210° SW
Sa, 13.04. 8:00 7 2 25 230° SW
Sa, 13.04. 2:00 9 2 26 270° W
Ortszeit Stärke Spitze Richtung
km/h Bft. km/h Grad Sektor
Mo, 15.04. 0:30 7 2 11 30° NO
Mo, 15.04. 0:20 7 2 - 30° NO
Mo, 15.04. 0:10 7 2 - 20° N
Mo, 15.04. 0:00 7 2 11 30° NO
So, 14.04. 23:50 7 2 - 30° NO
So, 14.04. 23:40 7 2 - 30° NO
So, 14.04. 23:30 7 2 11 30° NO
So, 14.04. 23:00 7 2 14 30° NO
So, 14.04. 22:30 7 2 11 30° NO
So, 14.04. 22:00 6 1 13 20° N
So, 14.04. 21:30 7 2 13 360° N
Ortszeit Untergrenze Bedeckung Gattung
total tief tief mittel hoch
So, 14.04. 20:00 1380 m 8/8 1/8 - - -
So, 14.04. 14:00 6900 m 8/8 1/8 - - -
So, 14.04. 8:00 9000 m 5/8 0/8 - - -
So, 14.04. 2:00 8700 m 8/8 0/8 - - -
Sa, 13.04. 20:00 6600 m 8/8 2/8 - - -
Sa, 13.04. 14:00 7200 m 4/8 0/8 - - -
Sa, 13.04. 8:00 210 m 7/8 1/8 - - -
Sa, 13.04. 2:00 7800 m 8/8 0/8 - - -
Ortszeit Bedeckungsgrad in Achtel und Wolkenuntergrenze
Mo, 15.04. 0:30 2(1350m) 8(2700m) 8(4500m)
Mo, 15.04. 0:20 2(1350m) 8(2700m) 8(4500m)
Mo, 15.04. 0:10 8
Mo, 15.04. 0:00 6(1350m) 8(2700m) 8(4500m)
So, 14.04. 23:50 6(1350m) 8(2700m) 8(4500m)
So, 14.04. 23:40 8
So, 14.04. 23:30 6(1350m) 7(1500m) 8(4800m)
So, 14.04. 23:00 6(3000m) 8(4500m)
So, 14.04. 22:30 1(1800m) 8(4800m) 8(6900m)
So, 14.04. 22:00 5(1800m) 8(4800m) 8(6600m)
So, 14.04. 21:30 7(1800m) 8(5100m) 8(6600m)
Ortszeit Stationsdruck (hPa) Tendenz (hPa in 3 Std.)
So, 14.04. 20:00 920 - 1,0
So, 14.04. 14:00 922 - 0,4
So, 14.04. 8:00 922 + 0,1
So, 14.04. 2:00 923 - 1,2
Sa, 13.04. 20:00 925 - 1,8
Sa, 13.04. 14:00 929 - 1,1
Sa, 13.04. 8:00 930 + 0,1
Sa, 13.04. 2:00 930 - 0,5
Ortszeit Stationsdruck (hPa) Tendenz (hPa in 3 Std.)
Mo, 15.04. 0:30 918 - 2,4
Mo, 15.04. 0:20 918 keine Meldung
Mo, 15.04. 0:10 918 keine Meldung
Mo, 15.04. 0:00 918 - 2,0
So, 14.04. 23:50 918 keine Meldung
So, 14.04. 23:40 918 keine Meldung
So, 14.04. 23:30 918 - 1,8
So, 14.04. 23:00 919 - 1,4
So, 14.04. 22:30 919 - 1,3
So, 14.04. 22:00 920 - 0,9
So, 14.04. 21:30 920 - 0,8
Ortszeit Schneehöhe (cm)
So, 14.04. 20:00 0
So, 14.04. 14:00 0
So, 14.04. 8:00 0
So, 14.04. 2:00 0
Sa, 13.04. 20:00 0
Sa, 13.04. 14:00 0
Sa, 13.04. 8:00 0
Sa, 13.04. 2:00 0
Ortszeit Schneehöhe (cm)
Mo, 15.04. 0:30 0
Mo, 15.04. 0:20 0
Mo, 15.04. 0:10 -
Mo, 15.04. 0:00 0
So, 14.04. 23:50 0
So, 14.04. 23:40 -
So, 14.04. 23:30 0
So, 14.04. 23:00 0
So, 14.04. 22:30 0
So, 14.04. 22:00 0
So, 14.04. 21:30 0
Link zu dieser Seite / Seite empfehlen

Das Wetter in ...